Location: ActonStarParty
(42.4766°N, 71.4538°W)
Time: 09:34:31
(UTC-04:00)

NOSS 3-4 (A) - Pass Details

Date: 19 April 2018
Orbit: 943 x 1269 km, 63.4° (Epoch: 24 April)

Event Time Altitude Azimuth Distance (km) Brightness Sun altitude
Rises 22:36:17 0° 322° (NW) 3,870 7.9 -28.5°
Reaches altitude 10° 22:38:51 10° 321° (NW) 2,956 7.0 -28.8°
Maximum altitude 22:45:54 73° 238° (WSW) 1,212 3.8 -29.6°
Enters shadow 22:46:43 67° 194° (SSW) 1,260 3.8 -29.6°
